Regional Weather Roundup
Issued by NWS Binghamton, NY

Home | Current Version | Previous Version | Text Only | Print | Product List | Glossary On
Versions: 1 2 3 4 5 6 7 8 9 10 11 12 13 14 15 16 17 18 19 20 21 22 23 24 25 26 27 28 29 30 31 32 33 34 35 36 37 38 39 40 41 42 43 44 45 46 47 48 49 50
000
ASUS41 KBGM 292110
RWRBGM
RWRBGM
BINGHAMTON REGIONAL WEATHER ROUNDUP
NATIONAL WEATHER SERVICE BINGHAMTON NY
500 PM EDT SAT AUG 29 2015

Note: "fair" indicates few or no clouds below 12,000 feet with no
significant weather and/or obstructions to visibility.

* = Station(s) that does not report precipitation, such as rain,
snow, etc, also no thunder or fog.

!NYZ009-015>018-022>025-036-037-044>046-055>057-062-292200
...CENTRAL NEW YORK...

CITY           SKY/WX    TMP DP  RH WIND       PRES   REMARKS
BINGHAMTON     FAIR      76  58  53 W8        30.14S
CORTLAND       FAIR      77  55  47 W5        30.14R
DANSVILLE      FAIR      77  63  61 NW8       30.12S
ELMIRA         FAIR      81  57  43 SW7       30.10F
ITHACA         FAIR      77  58  51 N5        30.13S
HORNELL        SUNNY     75  57  53 N3          N/A
MONTICELLO     PTSUNNY   79  61  53 S7        30.16S
NORWICH        SUNNY     77  57  50 CALM      30.12S
ONEONTA        MOSUNNY   73  55  53 SW3       30.14F
PENN YAN       FAIR      78  62  57 VRB3      30.13S
ROME           FAIR      77  57  50 NW9       30.10F
SIDNEY         MOSUNNY   79  63  57 CALM      30.11S
SYRACUSE       CLOUDY    76  63  64 NW12      30.09S
$$

!PAZ038>040-043-044-047-048-072-292200
...NORTHEAST PENNSYLVANIA...

CITY           SKY/WX    TMP DP  RH WIND       PRES   REMARKS
HAZLETON       FAIR      79  61  53 SW3       30.18S
SCRANTON       PTSUNNY   81  61  50 S6        30.11F
TOWANDA*       SUNNY     81  55  41 MISG      30.12S
$$
&&
KEY
WCI = WIND CHILL INDEX
VSB = VISIBILITY
HX  = HEAT INDEX
$$


USA.gov is the U.S. government's official web portal to all federal, state and local government web resources and services.